Location: Lecco
(45.8566°N, 9.3977°E)
Time: 05:32:35
(UTC+02:00)

Vanguard 2 Rocket - All Passes

Search period start: 19 July 2019 00:00
Search period end: 29 July 2019 00:00
Orbit: 554 x 3326 km, 32.9° (Epoch: 18 July)

Date Brightness Start Highest point End Pass type
(mag) Time Alt. Az. Time Alt. Az. Time Alt. Az.
19 Jul - 13:35:11 10° SSW 13:39:58 15° SSE 13:43:41 10° SE daylight
19 Jul - 15:48:01 10° SW 15:52:44 20° S 15:56:17 10° SE daylight
19 Jul - 18:02:32 10° SW 18:04:44 13° SSW 18:06:44 10° SSE daylight
20 Jul - 12:35:36 10° S 12:40:19 14° SSE 12:44:07 10° SE daylight
20 Jul - 14:47:38 10° SW 14:53:29 22° S 14:57:40 10° SE daylight
20 Jul - 17:02:04 10° SW 17:05:46 18° SSW 17:08:46 10° SSE daylight
21 Jul - 11:36:51 10° S 11:40:28 12° SSE 11:43:34 10° SE daylight
21 Jul - 13:47:06 10° SW 13:54:04 22° S 13:58:54 10° ESE daylight
21 Jul - 16:01:33 10° WSW 16:06:44 22° S 16:10:30 10° SE daylight
21 Jul - 18:18:28 10° SSW 18:18:32 10° SSW 18:18:35 10° SSW daylight
22 Jul - 12:46:36 10° SSW 12:54:24 21° SSE 12:59:52 10° ESE daylight
22 Jul - 15:00:49 10° SW 15:07:31 26° S 15:12:04 10° SE daylight
22 Jul - 17:16:17 10° WSW 17:19:37 16° SSW 17:22:22 10° SSE daylight
23 Jul - 11:46:20 10° SSW 11:54:30 19° SSE 12:00:28 10° ESE daylight
23 Jul - 13:59:52 10° SW 14:08:06 28° S 14:13:29 10° ESE daylight
23 Jul - 16:15:22 10° WSW 16:20:38 22° SSW 16:24:28 10° SE daylight
24 Jul - 10:46:35 10° S 10:54:22 16° SSE 11:00:25 10° ESE daylight
24 Jul - 12:58:50 10° SW 13:08:26 28° S 13:14:41 10° ESE daylight
24 Jul - 15:14:21 10° WSW 15:21:29 28° S 15:26:13 10° SE daylight
24 Jul - 17:31:04 10° SW 17:33:20 12° SSW 17:35:19 10° S daylight
25 Jul - 09:48:03 10° S 09:54:04 13° SSE 09:59:10 10° SE daylight
25 Jul - 11:57:51 10° SW 12:08:30 27° SSE 12:15:37 10° ESE daylight
25 Jul - 14:13:06 10° WSW 14:22:06 32° S 14:27:46 10° ESE daylight
25 Jul - 16:29:28 10° WSW 16:34:25 20° SSW 16:38:06 10° SSE daylight
26 Jul - 10:57:08 10° SSW 11:08:19 24° SSE 11:16:10 10° ESE daylight
26 Jul - 13:11:40 10° SW 13:22:26 34° S 13:29:07 10° ESE daylight
26 Jul - 15:28:07 10° WSW 15:35:20 27° SSW 15:40:09 10° SE daylight
27 Jul - 09:56:59 10° SSW 10:07:55 21° SSE 10:16:08 10° ESE daylight
27 Jul - 12:10:12 10° SW 12:22:28 34° S 12:30:13 10° ESE daylight
27 Jul - 14:26:36 10° WSW 14:36:01 33° S 14:41:52 10° SE daylight
27 Jul - 16:43:57 10° WSW 16:48:03 16° SSW 16:51:17 10° S daylight
28 Jul - 08:57:50 10° S 09:07:21 17° SSE 09:15:09 10° ESE daylight
28 Jul - 11:08:54 10° SW 11:22:13 32° SSE 11:31:01 10° ESE daylight
28 Jul - 13:24:53 10° WSW 13:36:22 37° S 13:43:18 10° ESE daylight
28 Jul - 15:42:07 10° WSW 15:49:04 24° SSW 15:53:49 10° SSE daylight
